Weather History for Tacoma, WA

Change the Weather History Date:

Saturday, March 16, 2013

  Actual Average Record
Temperature  
Mean Temperature 44 °F -  
Max Temperature 50 °F 51 °F 70 °F (1972)
Min Temperature 37 °F 35 °F 27 °F (1993)
Degree Days  
Heating Degree Days 22    
Moisture  
Dew Point 42 °F    
Average Humidity 89    
Maximum Humidity 100    
Minimum Humidity 71    
Precipitation  
Precipitation 0.13 in - - ()
Sea Level Pressure  
Sea Level Pressure 30.03 in    
Wind  
Wind Speed 10 mph (SSW)    
Max Wind Speed 24 mph    
Max Gust Speed 31 mph    
Visibility 10 miles    
Events Rain    
Averages and records for this station are not official NWS values.
T = Trace of Precipitation, MM = Missing Value Source: NWS Daily Summary

Daily Weather History Graph

Daily Weather History Graph

Search for Another Location

Airport:

Trip Planner

Search our weather history database for the weather conditions in past years. The results will help you decide how hot, cold, wet, or windy it might be!

Date:

Astronomy

Mar. 16, 2013 Rise Set
Actual Time 7:20 AM PDT 7:17 PM PDT
Civil Twilight 6:49 AM PDT 7:47 PM PDT
Nautical Twilight 6:14 AM PDT 8:23 PM PDT
Astronomical Twilight 5:37 AM PDT 9:00 PM PDT
Moon 9:33 AM PDT (3/16) No Moon Set
Length of Visible Light 12h 58m
Length of Day
11h 57m
Waxing Crescent, 24% of the Moon is Illuminated
Mar 16
Waxing Crescent
Mar 19
First Quarter
Mar 27
Full
Apr 2
Last Quarter
Apr 10
New

Hourly Weather History & Observations

Time (PDT) Temp. Windchill Dew Point Humidity Pressure Visibility Wind Dir Wind Speed Gust Speed Precip Events Conditions
12:58 AM 47.3 °F - 46.8 °F 98% 30.17 in 10.0 mi SSW 4.6 mph - N/A   Overcast
1:43 AM 48.2 °F - 46.4 °F 93% 30.14 in 10.0 mi SSW 11.5 mph - N/A   Overcast
1:48 AM 48.2 °F - 46.4 °F 93% 30.14 in 10.0 mi SSW 11.5 mph - N/A   Overcast
1:58 AM 47.5 °F - 46.2 °F 95% 30.16 in 10.0 mi SSW 10.4 mph - N/A   Overcast
2:08 AM 48.2 °F - 46.4 °F 93% 30.14 in 10.0 mi SSW 11.5 mph - N/A   Overcast
2:13 AM 48.2 °F - 46.4 °F 93% 30.14 in 10.0 mi SSW 10.4 mph - N/A   Overcast
2:48 AM 46.4 °F 42.4 °F 46.4 °F 100% 30.14 in 10.0 mi SSW 8.1 mph - N/A   Overcast
2:58 AM 47.1 °F - 46.8 °F 99% 30.14 in 10.0 mi SSW 8.1 mph - N/A   Overcast
3:10 AM 46.4 °F 41.9 °F 46.4 °F 100% 30.13 in 10.0 mi SSW 9.2 mph - N/A Rain Light Rain
3:27 AM 46.4 °F 42.4 °F 46.4 °F 100% 30.13 in 10.0 mi South 8.1 mph - N/A   Overcast
3:54 AM 46.4 °F 42.4 °F 46.4 °F 100% 30.12 in 10.0 mi South 8.1 mph - N/A   Mostly Cloudy
3:58 AM 46.6 °F - 46.4 °F 99% 30.13 in 10.0 mi SSW 8.1 mph - 0.00 in   Mostly Cloudy
4:55 AM 46.4 °F 44.3 °F 46.4 °F 100% 30.10 in 10.0 mi SSW 4.6 mph - N/A   Scattered Clouds
4:58 AM 46.0 °F 43.1 °F 45.9 °F 99% 30.12 in 10.0 mi SSW 5.8 mph - N/A   Scattered Clouds
5:29 AM 46.4 °F 45.2 °F 46.4 °F 100% 30.09 in 10.0 mi South 3.5 mph - N/A   Mostly Cloudy
5:34 AM 46.4 °F 43.5 °F 46.4 °F 100% 30.09 in 10.0 mi SSW 5.8 mph - N/A   Overcast
5:40 AM 46.4 °F 41.5 °F 46.4 °F 100% 30.09 in 10.0 mi SW 10.4 mph - N/A   Overcast
5:55 AM 46.4 °F 42.4 °F 46.4 °F 100% 30.09 in 10.0 mi SW 8.1 mph - N/A   Mostly Cloudy
5:58 AM 46.2 °F 41.7 °F 46.0 °F 99% 30.11 in 10.0 mi SW 9.2 mph - N/A   Mostly Cloudy
6:28 AM 46.4 °F 41.1 °F 46.4 °F 100% 30.08 in 10.0 mi SSW 11.5 mph - N/A Rain Light Rain
6:39 AM 46.4 °F 41.9 °F 46.4 °F 100% 30.07 in 10.0 mi South 9.2 mph - N/A   Overcast
6:58 AM 46.0 °F 41.9 °F 45.5 °F 98% 30.09 in 10.0 mi SSW 8.1 mph - 0.00 in   Scattered Clouds
7:58 AM 45.1 °F 40.3 °F 45.0 °F 99% 30.09 in 10.0 mi South 9.2 mph - N/A   Overcast
8:58 AM 46.2 °F 41.7 °F 46.0 °F 99% 30.08 in 10.0 mi South 9.2 mph - N/A   Overcast
9:53 AM 48.2 °F - 46.4 °F 93% 30.05 in 10.0 mi South 9.2 mph - N/A   Overcast
9:58 AM 47.7 °F - 45.9 °F 93% 30.07 in 10.0 mi South 11.5 mph - N/A   Overcast
10:43 AM 50.0 °F - 44.6 °F 82% 30.04 in 10.0 mi South 11.5 mph - N/A   Overcast
10:58 AM 50.0 °F - 45.1 °F 83% 30.05 in 10.0 mi South 15.0 mph 19.6 mph N/A   Overcast
11:23 AM 50.0 °F - 44.6 °F 82% 30.02 in 10.0 mi SSW 10.4 mph - N/A   Overcast
11:39 AM 50.0 °F - 44.6 °F 82% 30.01 in 10.0 mi South 12.7 mph - N/A Rain Light Rain
11:58 AM 48.4 °F - 46.6 °F 93% 30.03 in 10.0 mi SSW 9.2 mph - 0.01 in Rain Light Rain
12:02 PM 48.2 °F - 46.4 °F 93% 30.00 in 10.0 mi SSW 12.7 mph - N/A   Overcast
12:07 PM 48.2 °F - 46.4 °F 93% 30.00 in 10.0 mi SSW 8.1 mph - N/A Rain Light Rain
12:58 PM 46.4 °F 40.1 °F 44.6 °F 93% 30.01 in 7.0 mi SSW 15.0 mph 25.3 mph 0.06 in Rain Light Rain
1:08 PM 46.4 °F 41.1 °F 44.6 °F 93% 29.99 in 10.0 mi SSW 11.5 mph 24.2 mph N/A Rain Light Rain
1:09 PM 46.4 °F 40.1 °F 44.6 °F 93% 29.99 in 10.0 mi SSW 15.0 mph 21.9 mph N/A   Overcast
1:58 PM 48.9 °F - 43.7 °F 82% 29.98 in 10.0 mi SW 24.2 mph 28.8 mph 0.01 in   Overcast
2:35 PM 48.2 °F - 42.8 °F 82% 29.95 in 10.0 mi SW 18.4 mph 23.0 mph N/A   Overcast
2:56 PM 50.0 °F - 42.8 °F 76% 29.94 in 10.0 mi SSW 15.0 mph 23.0 mph N/A   Mostly Cloudy
2:58 PM 50.5 °F - 42.3 °F 73% 29.96 in 10.0 mi SW 16.1 mph 23.0 mph N/A   Mostly Cloudy
3:09 PM 50.0 °F - 42.8 °F 76% 29.94 in 10.0 mi SW 15.0 mph 25.3 mph N/A   Overcast
3:14 PM 50.0 °F - 41.0 °F 71% 29.94 in 10.0 mi West 18.4 mph 23.0 mph N/A   Overcast
3:19 PM 48.2 °F - 41.0 °F 76% 29.95 in 10.0 mi WSW 16.1 mph 23.0 mph N/A   Overcast
3:23 PM 46.4 °F 40.4 °F 41.0 °F 81% 29.95 in 7.0 mi WSW 13.8 mph 23.0 mph N/A Rain Light Rain
3:54 PM 44.6 °F 37.4 °F 41.0 °F 87% 29.96 in 10.0 mi WSW 16.1 mph 23.0 mph N/A Rain Light Rain
3:58 PM 43.9 °F 35.9 °F 40.5 °F 88% 29.97 in 10.0 mi WSW 18.4 mph 27.6 mph 0.04 in Rain Light Rain
4:11 PM 44.6 °F 40.7 °F 41.0 °F 87% 29.96 in 10.0 mi SW 6.9 mph 19.6 mph N/A   Overcast
4:16 PM 44.6 °F 39.7 °F 41.0 °F 87% 29.95 in 10.0 mi SW 9.2 mph 19.6 mph N/A   Overcast
4:55 PM 44.6 °F 38.8 °F 37.4 °F 76% 29.96 in 10.0 mi SW 11.5 mph 20.7 mph N/A   Overcast
4:58 PM 44.1 °F 37.7 °F 37.8 °F 78% 29.97 in 10.0 mi SW 12.7 mph 20.7 mph 0.01 in   Overcast
5:07 PM 44.6 °F 37.4 °F 37.4 °F 76% 29.95 in 10.0 mi SW 16.1 mph 21.9 mph N/A Rain Light Rain
5:16 PM 44.6 °F 37.2 °F 37.4 °F 76% 29.95 in 10.0 mi SW 17.3 mph 28.8 mph N/A   Mostly Cloudy
5:31 PM 44.6 °F 37.4 °F 37.4 °F 76% 29.96 in 10.0 mi SSW 16.1 mph 31.1 mph N/A Rain Light Rain
5:36 PM 42.8 °F 34.3 °F 37.4 °F 81% 29.95 in 10.0 mi SW 19.6 mph 29.9 mph N/A Rain Light Rain
5:41 PM 44.6 °F 40.2 °F 37.4 °F 76% 29.96 in 10.0 mi SW 8.1 mph 25.3 mph N/A   Mostly Cloudy
5:55 PM 44.6 °F 37.8 °F 37.4 °F 76% 29.96 in 10.0 mi WSW 15.0 mph 26.5 mph N/A Rain Light Rain
5:58 PM 43.9 °F 37.9 °F 36.5 °F 75% 29.98 in 10.0 mi WSW 11.5 mph 26.5 mph 0.00 in Rain Light Rain
6:08 PM 42.8 °F 37.5 °F 35.6 °F 76% 29.97 in 10.0 mi WSW 9.2 mph 20.7 mph N/A Rain Light Rain
6:28 PM 42.8 °F 35.8 °F 37.4 °F 81% 29.97 in 10.0 mi SW 13.8 mph 21.9 mph N/A   Mostly Cloudy
6:58 PM 42.4 °F 38.8 °F 36.0 °F 78% 29.98 in 10.0 mi SW 5.8 mph 17.3 mph 0.00 in   Clear
7:24 PM 41.0 °F 35.8 °F 37.4 °F 87% 29.96 in 10.0 mi SSW 8.1 mph - N/A   Mostly Cloudy
7:58 PM 41.4 °F 35.7 °F 35.2 °F 79% 29.99 in 10.0 mi SW 9.2 mph 17.3 mph N/A   Mostly Cloudy
8:08 PM 41.0 °F 35.2 °F 35.6 °F 81% 29.97 in 10.0 mi SW 9.2 mph 21.9 mph N/A Rain Light Rain
8:27 PM 41.0 °F 36.4 °F 37.4 °F 87% 29.97 in 10.0 mi SW 6.9 mph 18.4 mph N/A   Mostly Cloudy
8:58 PM 39.6 °F 33.5 °F 36.7 °F 89% 30.00 in 10.0 mi SSW 9.2 mph - 0.00 in   Mostly Cloudy
9:13 PM 39.2 °F 35.0 °F 35.6 °F 87% 29.98 in 10.0 mi SSW 5.8 mph - N/A   Mostly Cloudy
9:18 PM 39.2 °F 33.6 °F 35.6 °F 87% 29.98 in 10.0 mi SSW 8.1 mph - N/A   Scattered Clouds
9:58 PM 37.8 °F 32.5 °F 35.6 °F 92% 30.00 in 10.0 mi SSW 6.9 mph - N/A   Partly Cloudy
10:58 PM 37.2 °F 29.1 °F 35.6 °F 94% 30.00 in 10.0 mi SSW 12.7 mph 18.4 mph N/A   Clear
11:58 PM 37.2 °F 31.2 °F 35.8 °F 95% 30.02 in 10.0 mi SSW 8.1 mph - N/A   Clear